Location: Brodeslavy
(49.9527°N, 13.5567°E)
Time: 05:12:13
(UTC+00:00)

OPS 6432 - Pass Details

Date: 17 June 2025
Orbit: 410 x 1480 km, 63.3° (Epoch: 12 July)

Event Time Altitude Azimuth Distance (km) Brightness Sun altitude
Rises 21:59:07 0° 316° (NW) 2,498 9.3 -15.1°
Reaches altitude 10° 22:01:18 10° 317° (NW) 1,549 8.1 -15.2°
Maximum altitude 22:04:38 88° 226° (SW) 419 4.1 -15.4°
Enters shadow 22:05:52 34° 139° (SE) 695 4.9 -15.4°
